Retour au catalogue

COSMOS 1275 DEB

ActifPO
NORAD 12771·DEBRIS·🇷🇺 Russia

Lancé Jun 4, 1981 depuis Plesetsk Cosmodrome

Loading…

Prochains Passages (prochaines 24 heures)

TLE

FraisSource: Space-Track

Époque: Sep 13, 2026, 11:35 UTC

1 12771U 81053DQ  26256.48314063  .00000735  00000-0  77134-3 0  9995
2 12771  82.8651  61.5694 0149775 266.3490 149.3316 13.69163939232143

Suivez COSMOS 1275 DEB en temps réel avec AllMySat

Download on the App Store